Weather History for Lawton, OK

Change the Weather History Date:

Tuesday, April 2, 2013

  Actual Average Record
Temperature  
Mean Temperature 44 °F -  
Max Temperature 48 °F 70 °F 89 °F (1950)
Min Temperature 39 °F 43 °F 28 °F (1970)
Degree Days  
Heating Degree Days 22    
Moisture  
Dew Point 39 °F    
Average Humidity 86    
Maximum Humidity 93    
Minimum Humidity 74    
Precipitation  
Precipitation 0.21 in - - ()
Sea Level Pressure  
Sea Level Pressure 30.08 in    
Wind  
Wind Speed 20 mph (NNE)    
Max Wind Speed 24 mph    
Max Gust Speed 32 mph    
Visibility 8 miles    
Events Rain , Thunderstorm    
Averages and records for this station are not official NWS values.
T = Trace of Precipitation, MM = Missing Value Source: NWS Daily Summary

Daily Weather History Graph

Daily Weather History Graph

Search for Another Location

Airport:

Trip Planner

Search our weather history database for the weather conditions in past years. The results will help you decide how hot, cold, wet, or windy it might be!

Date:

Astronomy

Apr. 02, 2013 Rise Set
Actual Time 7:18 AM CDT 7:55 PM CDT
Civil Twilight 6:53 AM CDT 8:21 PM CDT
Nautical Twilight 6:23 AM CDT 8:51 PM CDT
Astronomical Twilight 5:53 AM CDT 9:21 PM CDT
Moon 1:51 AM CDT (4/2) 12:21 PM CDT (4/2)
Length of Visible Light 13h 27m
Length of Day
12h 36m
Waning Gibbous, 55% of the Moon is Illuminated
Apr 2
Waning Gibbous
Apr 2
Last Quarter
Apr 10
New
Apr 18
First Quarter
Apr 25
Full

Hourly Weather History & Observations

Time (CDT) Temp. Windchill Dew Point Humidity Pressure Visibility Wind Dir Wind Speed Gust Speed Precip Events Conditions
12:53 AM 48.9 °F - 41.0 °F 74% 30.04 in 10.0 mi NNE 19.6 mph - N/A   Partly Cloudy
1:48 AM 46.4 °F 38.5 °F 39.2 °F 76% 30.04 in 10.0 mi NNE 21.9 mph 32.2 mph N/A Thunderstorm Scattered Clouds
1:53 AM 46.9 °F - 39.9 °F 77% 30.04 in 10.0 mi NNE 23.0 mph 31.1 mph N/A Thunderstorm Scattered Clouds
2:05 AM 46.4 °F 39.0 °F 39.2 °F 76% 30.05 in 10.0 mi NNE 19.6 mph 27.6 mph N/A   Mostly Cloudy
2:53 AM 45.0 °F 36.6 °F 37.9 °F 76% 30.04 in 10.0 mi NNE 21.9 mph 28.8 mph N/A   Overcast
3:53 AM 45.0 °F 36.6 °F 37.0 °F 74% 30.04 in 10.0 mi NNE 21.9 mph 31.1 mph N/A   Overcast
4:53 AM 42.1 °F 32.3 °F 37.0 °F 82% 30.02 in 7.0 mi NE 24.2 mph 32.2 mph 0.02 in Rain Light Rain
5:53 AM 42.1 °F 33.9 °F 37.0 °F 82% 30.04 in 10.0 mi NNE 17.3 mph - 0.01 in   Overcast
6:23 AM 42.8 °F 35.1 °F 37.4 °F 81% 30.05 in 10.0 mi NNE 16.1 mph - 0.00 in Rain Light Rain
6:53 AM 39.9 °F 30.0 °F 37.0 °F 89% 30.06 in 10.0 mi NNE 21.9 mph 28.8 mph 0.00 in   Overcast
7:53 AM 41.0 °F 31.4 °F 37.0 °F 86% 30.07 in 10.0 mi NNE 21.9 mph - N/A   Overcast
8:53 AM 41.0 °F 32.8 °F 37.0 °F 86% 30.10 in 10.0 mi NNE 16.1 mph - N/A   Overcast
9:19 AM 41.0 °F 32.2 °F 37.4 °F 87% 30.09 in 10.0 mi NNE 18.4 mph - 0.00 in Rain Light Rain
9:53 AM 41.0 °F 32.2 °F 37.0 °F 86% 30.12 in 10.0 mi North 18.4 mph - 0.00 in   Overcast
10:53 AM 42.1 °F 32.8 °F 37.9 °F 85% 30.12 in 10.0 mi NNE 21.9 mph 32.2 mph 0.00 in   Overcast
11:36 AM 42.8 °F 33.8 °F 37.4 °F 81% 30.11 in 10.0 mi NNE 21.9 mph 27.6 mph N/A   Overcast
11:53 AM 42.1 °F 33.6 °F 37.9 °F 85% 30.11 in 10.0 mi NE 18.4 mph 27.6 mph N/A   Overcast
12:53 PM 42.1 °F 33.9 °F 37.9 °F 85% 30.12 in 8.0 mi NNE 17.3 mph - N/A   Overcast
1:50 PM 42.8 °F 35.4 °F 39.2 °F 87% 30.09 in 2.5 mi NNE 15.0 mph - 0.00 in   Overcast
1:53 PM 42.1 °F 33.9 °F 39.0 °F 89% 30.10 in 2.5 mi NNE 17.3 mph - 0.00 in Rain , Thunderstorm Light Thunderstorms and Rain
2:25 PM 41.0 °F 32.2 °F 39.2 °F 93% 30.09 in 10.0 mi NNE 18.4 mph 25.3 mph 0.03 in Thunderstorm Thunderstorm
2:53 PM 41.0 °F 33.1 °F 39.0 °F 93% 30.09 in 3.0 mi NNE 15.0 mph - 0.13 in Rain , Thunderstorm Light Thunderstorms and Rain
3:23 PM 41.0 °F 32.8 °F 39.2 °F 93% 30.08 in 2.5 mi NNE 16.1 mph - 0.04 in Rain Rain
3:31 PM 42.8 °F 35.4 °F 39.2 °F 87% 30.07 in 5.0 mi NNE 15.0 mph 24.2 mph 0.04 in Rain Light Rain
3:53 PM 42.1 °F 34.5 °F 39.0 °F 89% 30.09 in 6.0 mi NNE 15.0 mph 24.2 mph 0.04 in   Overcast
4:22 PM 42.8 °F 35.1 °F 39.2 °F 87% 30.06 in 2.5 mi NNE 16.1 mph 25.3 mph 0.00 in Rain , Thunderstorm Rain
4:37 PM 41.0 °F 31.9 °F 39.2 °F 93% 30.06 in 3.0 mi NNE 19.6 mph 25.3 mph 0.01 in Rain Light Rain
4:53 PM 41.0 °F 32.2 °F 39.0 °F 93% 30.07 in 7.0 mi NNE 18.4 mph - 0.01 in   Overcast
5:53 PM 42.1 °F 33.3 °F 39.0 °F 89% 30.07 in 10.0 mi NNE 19.6 mph - 0.00 in Rain Light Rain
6:21 PM 42.8 °F 33.8 °F 39.2 °F 87% 30.05 in 10.0 mi NNE 21.9 mph 26.5 mph 0.00 in Rain Light Rain
6:53 PM 42.1 °F 33.1 °F 39.0 °F 89% 30.06 in 10.0 mi NNE 20.7 mph 28.8 mph 0.00 in   Overcast
7:53 PM 42.1 °F 33.3 °F 39.0 °F 89% 30.08 in 6.0 mi NNE 19.6 mph 28.8 mph 0.00 in Rain Light Rain
8:53 PM 42.1 °F 33.6 °F 39.9 °F 92% 30.09 in 3.0 mi NNE 18.4 mph - 0.00 in   Overcast
9:53 PM 42.1 °F 34.2 °F 39.0 °F 89% 30.12 in 4.0 mi NE 16.1 mph - 0.00 in   Overcast
10:53 PM 42.1 °F 33.6 °F 39.0 °F 89% 30.12 in 3.0 mi NE 18.4 mph - 0.00 in Rain Light Rain
11:53 PM 42.1 °F 34.2 °F 39.0 °F 89% 30.11 in 4.0 mi NNE 16.1 mph - 0.00 in Rain , Thunderstorm Light Rain